Location: Erlenbrunn
(49.1717°N, 7.6142°E)
Time: 12:00:17
(UTC+00:00)

USA 281 - Pass Details

Date: 25 November 2020
Orbit: 1074 x 1084 km, 106.0° (Epoch: 22 January)

Event Time Altitude Azimuth Distance (km) Brightness Sun altitude
Rises 18:48:49 0° 179° (S) 3,871 6.1 -30.6°
Reaches altitude 10° 18:51:32 10° 187° (S) 2,918 5.5 -31.1°
Maximum altitude 18:57:34 38° 254° (WSW) 1,582 4.4 -32.0°
Drops below altitude 10° 19:03:39 10° 321° (NW) 2,929 6.0 -33.0°
Sets 19:06:24 0° 330° (NNW) 3,887 6.6 -33.5°
